Regional Weather Roundup
Issued by NWS Cleveland, OH

Home | Current Version | Previous Version | Text Only | Print | Product List | Glossary Off
Versions: 1 2 3 4 5 6 7 8 9 10 11 12 13 14 15 16 17 18 19 20 21 22 23 24 25 26 27 28 29 30 31 32 33 34 35 36 37 38 39 40 41 42 43 44 45 46 47 48 49 50

000
ASUS41 KCLE 230200
RWRCLE
OHIO REGIONAL WEATHER ROUNDUP
NATIONAL WEATHER SERVICE WILMINGTON, OH
1000 PM EDT SUN APR 22 2018

NOTE: "FAIR" INDICATES FEW OR NO CLOUDS BELOW 12,000 FEET WITH NO
SIGNIFICANT WEATHER AND/OR OBSTRUCTIONS TO VISIBILITY.

OHZ001>008-015>018-024>027-034-035-043-044-230300-
   NORTHWEST OHIO

CITY           SKY/WX    TMP DP  RH WIND       PRES   REMARKS
DEFIANCE       FAIR      48  23  37 NE9       30.29S
FINDLAY        FAIR      50  20  30 NE14      30.26S
TOLEDO EXPRESS FAIR      47  24  40 E8        30.30S
TOLEDO EXEC    FAIR      45  27  49 NE7       30.31F
LIMA           FAIR      48  24  39 NE9       30.25S
$$

OHZ009>014-019>023-028>033-038-089-230300-
   NORTHEAST OHIO

CITY           SKY/WX    TMP DP  RH WIND       PRES   REMARKS
CLE-HOPKINS    FAIR      49  27  42 NE9       30.32R
CLE-LAKEFRONT  FAIR      52  23  32 NE12      30.29S
CUY CO. ARPT   PTCLDY    52  23  32 NE9       30.31S
LORAIN-ELYRIA  FAIR      46  24  42 NE15      30.30R
ASHTABULA      FAIR      51  20  29 NE7       30.32R
AKRON-CANTON   FAIR      51  27  39 NE9       30.28R
WOOSTER        NOT AVBL
MANSFIELD      FAIR      48  25  40 N8        30.27R
YOUNGSTOWN     FAIR      49  27  42 NE10      30.29R
$$

OHZ042-051>053-060>062-070>072-077>081-230300-
  SOUTHWEST OHIO

CITY           SKY/WX    TMP DP  RH WIND       PRES   REMARKS
CINC-COVINGTON MOCLDY    61  26  26 NE17      30.14F
CINC-LUNKEN    FAIR      56  34  43 NE7       30.16S
HAMILTON       FAIR      54  34  46 NE6       30.17F
DAYTON         NOT AVBL
WRIGHT-PAT AFB NOT AVBL
DAYTON GENERAL FAIR      56  31  38 NE9       30.17S
WILMINGTON     FAIR      55  33  43 NE10      30.18S
$$

OHZ036-037-039>041-045>050-054>059-063>069-073>076-082>088-230300-
  CENTRAL AND SOUTHEAST OHIO

CITY           SKY/WX    TMP DP  RH WIND       PRES   REMARKS
COLUMBUS       FAIR      55  30  38 NE7       30.21S
OSU AIRPORT    FAIR      54  28  36 NE8       30.21S
BOLTON FIELD   FAIR      55  32  41 NE5       30.21S
RICKENBACK AFB NOT AVBL
NEWARK         FAIR      47  39  74 CALM      30.21S
MARION         FAIR      47  28  47 NE10      30.26R
LANCASTER      FAIR      55  35  47 NE8       30.21S
ZANESVILLE     NOT AVBL
NEW PHILLY     FAIR      53  33  46 NE5       30.25R
$$




USA.gov is the U.S. government's official web portal to all federal, state and local government web resources and services.